Location: Carlingford
(46.7848°N, 67.7474°W)
Time: 05:36:30
(UTC+00:00)

BlueWalker 3 - Visible Passes

Search period start: 28 November 2022 00:00
Search period end: 08 December 2022 00:00
Orbit: 500 x 519 km, 53.2° (Epoch: 27 November)

Date Brightness Start Highest point End Pass type
(mag) Time Alt. Az. Time Alt. Az. Time Alt. Az.
28 Nov 2.4 21:55:45 10° WSW 21:59:37 56° NNW 22:02:15 19° NE visible
28 Nov 4.2 23:35:18 10° WNW 23:37:05 21° NW 23:37:05 21° NW visible
29 Nov 2.4 21:37:24 10° W 21:41:16 53° NNW 21:44:37 13° NE visible
29 Nov 3.7 23:16:58 10° WNW 23:19:26 26° NNW 23:19:26 26° NNW visible
30 Nov 2.5 21:19:05 10° W 21:22:55 52° NNW 21:26:45 10° NE visible
30 Nov 3.3 22:58:38 10° WNW 23:01:47 30° NNW 23:01:47 30° NNW visible
01 Dec 3.0 22:40:18 10° WNW 22:43:49 31° N 22:44:07 30° N visible
02 Dec 3.1 22:21:57 10° WNW 22:25:29 31° N 22:26:28 27° NNE visible
03 Dec 5.0 00:00:54 10° NW 00:01:18 12° NW 00:01:18 12° NW visible
03 Dec 3.1 22:03:35 10° WNW 22:07:07 31° N 22:08:51 22° NE visible
03 Dec 4.5 23:42:31 10° NW 23:43:40 18° NW 23:43:40 18° NW visible
04 Dec 3.0 21:45:14 10° WNW 21:48:45 31° N 21:51:15 16° ENE visible
04 Dec 3.8 23:24:08 10° NW 23:26:05 27° NW 23:26:05 27° NW visible
05 Dec 3.0 21:26:51 10° WNW 21:30:24 31° N 21:33:42 11° ENE visible
05 Dec 2.9 23:05:44 10° WNW 23:08:32 41° NNW 23:08:32 41° NNW visible
06 Dec 2.0 22:47:19 10° WNW 22:51:03 59° NNE 22:51:03 59° NNE visible
07 Dec 1.9 22:28:55 10° WNW 22:32:49 62° NNE 22:33:41 47° E visible
